Location: Caltech
(34.1382°N, 118.1253°W)
Time: 13:54:16
(UTC-08:00)

OAO 2 Rocket - Visible Passes

Search period start: 23 November 2017 00:00
Search period end: 03 December 2017 00:00
Orbit: 677 x 746 km, 35.0° (Epoch: 22 November)

Date Brightness Start Highest point End Pass type
(mag) Time Alt. Az. Time Alt. Az. Time Alt. Az.
28 Nov 6.0 05:48:50 10° S 05:52:10 18° SSE 05:55:28 10° ESE visible
29 Nov 6.2 04:53:11 10° SSE 04:54:40 11° SE 04:56:09 10° SE visible
30 Nov 5.2 05:36:49 10° SSW 05:41:13 29° SSE 05:45:34 10° E visible
01 Dec 5.6 04:39:54 10° SSW 04:43:40 20° SSE 04:47:22 10° ESE visible
02 Dec 5.9 03:45:41 13° SSE 03:46:09 13° SE 03:48:34 10° ESE visible
02 Dec 4.3 05:25:25 10° SW 05:30:21 45° SSE 05:35:11 10° E visible
